Location: Unspecified
(0.0000°N, 0.0000°E)
Time: 07:05:40
(UTC+00:00)

Vanguard 2 - Pass Details

Date: 11 December 2017
Orbit: 553 x 2939 km, 32.9° (Epoch: 19 July)

Event Time Altitude Azimuth Distance (km) Brightness Sun altitude
Rises 09:42:18 0° 223° (SW) 6,794 12.3 50.7°
Reaches altitude 10° 09:47:37 10° 215° (SW) 5,738 12.1 51.8°
Maximum altitude 10:02:52 37° 154° (SSE) 3,397 12.3 54.6°
Drops below altitude 10° 10:13:58 10° 91° (E) 4,256 11.8 56.6°
Sets 10:17:11 0° 83° (E) 4,936 11.9 57.2°
